Location: Robledo de Chavela
(40.5014°N, 4.2377°W)
Time: 06:00:24
(UTC+00:00)

Cosmos 44 - Pass Details

Date: 18 April 2024
Orbit: 577 x 779 km, 65.1° (Epoch: 22 May)

Event Time Altitude Azimuth Distance (km) Brightness Sun altitude
Rises 20:54:44 0° 209° (SSW) 3,231 6.7 -20.5°
Reaches altitude 10° 20:57:07 10° 208° (SSW) 2,318 5.9 -20.8°
Maximum altitude 21:02:29 86° 123° (ESE) 785 3.4 -21.6°
Drops below altitude 10° 21:07:52 10° 33° (NNE) 2,316 6.0 -22.4°
Sets 21:10:15 0° 33° (NNE) 3,229 6.8 -22.8°
